Location: Riverside Cemetery
(38.3047°N, 99.7773°W)
Time: 06:50:02
(UTC+00:00)

X-37B - Pass Details

Date: 19 September 2020
Orbit: 382 x 392 km, 45.0° (Epoch: 15 October)

Event Time Altitude Azimuth Distance (km) Brightness Sun altitude
Exits shadow 11:42:47 - 304° (NW) 1,662 3.3 -9.0°
Reaches altitude 10° 11:43:29 10° 309° (NW) 1,403 3.0 -8.9°
Maximum altitude 11:46:20 31° 14° (NNE) 701 2.1 -8.3°
Drops below altitude 10° 11:49:13 10° 79° (E) 1,404 5.2 -7.8°
Sets 11:51:25 0° 90° (E) 2,259 6.8 -7.3°
